ABS 2

导读 | 豆包AI

ABS 2是由亚太卫星运营商ABS运营的通信卫星,于2014年2月6日发射入轨。作为ABS卫星舰队的核心成员,它的信号覆盖覆盖美洲、非洲、亚太、欧洲、中东及独联体地区,覆盖全球超80%人口,主要为区域提供广播电视、宽带通信等服务,支撑跨区域互联互通与数字化服务,是ABS全球卫星网络布局的重要节点,助力提升全球通信覆盖能力。

Basic Information
目录编号:
39508
目录名称:
ABS 2
国际标识:
2014-006A
轨道中心:
EARTH
卫星名称:
ABS 2
卫星全名:
--
卫星状态:
在轨 (已飞行4479 天)
发射日期:
2014-02-06 UTC
国别 :
(ABS)
星等 :
--
Orbit Information
数据来源 国际轨道数据 AOE轨道数据
星历时间 2026-05-12T22:56:30+0800
9小时前
查看轨道信息
2026-05-13T05:00:00+0800
3小时前
查看轨道信息
半长轴 42164.728km 42164.672km
偏心率 0.0003979 0.0003902
轨道倾角 0.032° 0.009°
近地点辐角 342.774° 48.049°
升交点赤经 65.210° 1.015°
平近点角 121.466° 211.513°
近地点 35769.813km 35770.082km
远地点 35803.369km 35802.988km
周期 1436.097分钟 1436.094分钟
每日圈数 1.002718 1.00272
Detailed Information
使用方式:
暂无
2D Orbit Map
3D Orbit Map
Orbit Altitude Analysis Chart
Orbit Inclination Analysis Chart
Orbit Comprehensive Analysis Chart
View Comprehensive Chart